GFSMW_sfc_dewp_087.txt.gz
Dewpoint
54 54 57 60 65 65 66 66 69 71 70 71 67 69 67 69 72 71 72 70 71 73 72 72 69 70 70 68 71 70 69 69 68 67 64 65 60 60 65 65 65 64 67
53 53 56 61 64 65 66 70 70 70 69 70 70 70 69 70 70 72 73 71 72 72 73 71 71 69 70 71 69 66 68 67 67 65 64 60 61 62 61 64 63 63 64
52 54 54 60 62 65 68 70 70 70 70 70 70 73 71 71 71 72 71 73 73 73 71 72 72 69 70 68 69 70 66 65 68 67 63 62 60 65 63 59 60 57 64
53 55 56 58 62 65 68 70 70 69 68 71 68 69 67 68 68 70 71 71 73 73 72 72 72 73 70 68 69 71 70 65 66 65 66 66 62 62 59 61 59 60 61
62 55 58 58 62 64 67 71 70 69 68 71 71 70 69 69 69 72 71 73 72 73 71 72 72 71 71 70 71 71 70 70 71 70 68 66 67 66 62 61 57 61 61
63 64 59 60 62 64 66 70 70 70 70 71 70 70 70 68 69 69 72 70 72 71 70 73 73 73 70 67 67 71 70 71 70 72 69 68 62 61 64 63 62 58 62
64 65 65 62 61 63 66 68 71 70 71 71 70 71 71 70 70 70 69 70 70 70 70 72 73 72 71 69 69 72 71 72 69 70 71 70 70 68 66 64 64 61 63
63 64 63 64 64 61 66 67 70 71 71 70 71 72 71 72 70 71 70 71 68 70 71 72 73 73 72 72 72 72 72 71 71 69 69 70 70 70 67 65 63 61 64
61 61 61 66 66 62 65 67 70 70 70 71 72 73 72 72 70 70 71 69 70 72 73 72 72 72 73 72 73 72 72 72 71 70 70 70 70 68 69 68 63 63 60
64 63 64 67 68 67 65 68 70 70 71 71 72 72 73 73 73 73 72 72 71 70 71 71 71 72 73 73 72 71 72 71 72 72 70 70 71 69 70 70 69 67 64
66 66 66 66 67 67 68 69 70 71 71 71 72 72 73 73 73 73 73 72 71 71 71 70 67 70 72 72 72 72 71 72 71 70 71 69 71 69 70 71 70 69 68
63 65 66 67 67 66 67 68 68 70 70 71 72 72 73 73 73 73 73 73 70 71 69 65 65 68 71 73 72 71 71 71 70 70 71 70 70 70 72 71 69 69 68
61 62 63 64 65 65 66 67 68 68 70 69 71 71 73 72 72 73 73 73 73 72 72 71 71 72 72 72 73 72 71 72 71 71 71 71 70 71 70 69 71 70 70
60 61 61 62 62 64 65 66 66 68 68 69 68 69 70 71 72 74 73 74 74 73 72 73 72 73 73 73 73 73 72 72 73 72 73 71 69 70 71 70 70 71 70
55 57 59 60 62 63 64 65 65 67 67 67 68 67 70 71 72 72 73 73 73 73 73 73 73 74 73 72 73 73 73 72 72 72 73 73 73 72 71 71 70 70 70
53 53 56 57 59 61 62 63 63 65 66 65 66 67 69 70 69 71 72 72 71 72 73 73 73 73 72 69 68 70 71 73 71 71 72 73 73 71 68 68 69 71 71
49 50 50 52 53 57 61 62 63 63 64 64 64 65 67 68 68 69 68 68 69 73 72 72 72 73 73 66 65 65 68 71 73 73 72 71 70 70 71 69 66 66 65
47 48 48 49 48 51 55 62 63 63 63 63 63 63 64 65 66 67 67 68 68 69 71 72 73 73 73 66 64 66 67 68 69 71 73 73 71 71 71 72 72 71 69
45 46 50 50 50 50 51 53 56 54 54 55 59 62 63 63 63 64 66 67 67 68 68 69 71 71 72 67 63 64 69 70 70 70 70 71 72 69 66 70 70 70 73
44 45 48 48 49 49 52 51 53 53 52 53 54 57 61 60 60 62 63 65 66 68 70 70 70 69 72 67 62 63 70 71 71 71 70 65 66 63 62 68 68 68 68
43 46 48 48 50 52 52 53 52 53 54 54 55 56 56 57 58 59 61 62 62 64 66 68 69 70 70 67 60 59 66 71 71 72 72 71 60 57 56 56 65 66 66
45 47 49 50 50 50 50 51 51 53 53 53 53 54 55 56 55 58 60 58 58 60 63 66 66 69 66 59 57 57 57 61 65 67 69 68 58 57 55 59 59 57 60
46 47 48 49 49 50 49 48 50 51 51 50 50 52 52 51 52 57 57 55 57 55 57 59 57 60 62 66 57 57 59 60 63 65 63 59 56 55 60 58 58 57 61
45 46 46 47 47 48 48 48 48 48 47 47 47 48 48 47 48 50 51 51 52 53 51 52 52 52 52 58 64 59 59 59 62 63 64 61 58 58 61 62 65 67 68
46 45 45 46 46 45 46 46 46 47 45 45 45 44 44 44 44 46 48 48 48 48 46 47 51 50 50 52 55 50 51 57 57 54 59 61 61 61 63 68 71 71 70
45 45 46 45 44 45 45 44 45 46 45 43 43 43 42 43 44 45 45 46 46 45 44 43 43 45 47 46 45 44 44 44 45 55 57 59 60 61 62 64 67 69 70

GFSMW_sfc_dewp_093.txt.gz
Dewpoint
62 64 64 65 65 64 65 66 66 69 68 67 67 67 67 68 70 69 71 70 71 72 71 71 69 68 66 67 69 68 66 67 67 63 63 61 62 64 64 65 65 66 68
62 63 63 64 64 64 65 66 66 68 68 67 68 68 68 69 70 71 71 71 71 72 71 70 67 68 69 69 69 68 65 65 66 64 61 59 57 62 62 64 64 64 64
61 62 62 64 64 63 65 65 66 67 69 68 68 70 70 70 70 70 71 70 70 71 72 71 70 68 68 67 68 69 67 64 66 66 62 59 57 61 60 59 63 64 63
60 62 62 63 64 63 65 65 67 67 68 69 68 68 68 67 68 69 70 71 71 71 71 71 70 69 68 67 67 70 67 66 66 66 67 65 61 61 57 58 60 60 58
58 61 62 62 63 63 65 66 67 67 68 69 69 68 67 68 69 69 70 69 71 72 71 71 70 70 68 66 68 70 69 70 69 68 67 65 62 64 61 59 57 58 59
58 62 62 62 63 64 66 67 68 67 68 69 70 69 68 67 68 68 69 70 70 71 71 71 70 70 69 68 68 70 69 69 69 69 68 66 65 65 64 62 62 61 60
62 63 62 62 62 65 67 67 67 66 67 68 69 69 68 68 68 68 69 69 69 70 70 71 71 70 69 68 66 69 69 69 68 68 68 68 68 68 66 64 61 62 63
64 64 66 64 64 65 67 66 66 65 66 68 69 70 69 68 68 69 69 69 69 70 70 71 71 71 70 70 67 70 70 69 70 68 68 67 68 68 67 66 62 61 62
62 63 66 67 67 65 68 67 66 65 66 67 69 69 70 69 68 69 69 68 70 70 69 70 71 70 70 70 70 70 70 70 70 68 68 68 69 68 68 67 66 62 60
63 65 66 67 68 67 67 68 69 66 68 68 69 69 70 70 70 69 70 69 70 69 69 70 71 71 72 71 70 70 70 69 70 70 69 68 69 69 69 69 68 67 62
64 64 66 68 68 68 69 69 70 69 69 70 69 69 70 70 71 70 70 70 69 69 70 70 70 70 71 71 70 70 70 69 69 69 69 68 68 68 68 70 68 68 66
65 65 66 67 67 68 68 68 69 69 69 68 69 70 70 71 71 70 71 71 71 69 70 70 70 70 70 71 71 71 70 70 69 68 69 68 70 68 68 70 67 68 68
63 65 66 66 66 67 68 68 68 68 68 68 68 69 69 70 71 71 71 72 72 70 69 69 68 67 66 68 71 71 70 70 70 70 69 68 69 68 68 68 68 68 69
62 63 64 65 66 66 67 68 69 69 68 68 68 69 68 68 69 70 70 71 72 71 69 69 67 66 65 66 69 71 71 70 70 71 71 70 70 69 68 68 68 68 68
61 61 62 63 64 65 66 68 68 68 68 67 67 67 69 69 69 68 68 70 71 72 71 70 70 70 70 70 71 71 71 71 70 70 71 71 71 70 69 71 70 69 68
60 61 61 62 63 64 64 65 65 66 68 67 66 67 67 67 67 67 68 68 68 69 70 70 70 70 72 69 67 70 71 71 71 71 71 71 70 70 67 67 67 70 70
57 58 60 61 62 62 63 63 63 64 64 64 65 66 66 65 65 66 66 66 67 67 68 69 70 71 70 66 64 66 70 70 70 70 71 71 71 70 71 69 66 66 65
50 50 52 57 61 62 61 57 56 57 60 61 63 64 64 64 64 64 64 65 65 66 66 68 68 68 69 63 62 65 67 69 68 68 70 70 71 71 71 71 70 70 70
48 49 52 53 53 52 53 53 52 52 53 54 56 57 59 62 63 63 64 64 63 63 64 66 67 67 68 59 59 65 68 68 69 69 70 70 70 65 61 68 69 69 70
48 52 53 52 51 50 51 50 50 51 51 51 52 52 52 55 57 58 60 63 61 61 62 64 67 64 65 58 60 63 66 64 65 67 68 61 62 58 56 64 64 65 67
49 50 50 50 50 49 49 49 48 48 48 48 48 49 49 50 50 53 56 55 55 56 62 65 66 65 63 62 55 56 61 60 60 62 64 65 60 59 57 55 60 64 65
48 49 48 47 48 48 47 46 46 47 46 46 46 46 45 46 47 48 48 48 48 47 48 48 49 56 56 55 54 54 55 57 58 59 61 61 54 53 53 54 57 55 57
47 46 46 46 46 46 45 44 45 46 45 44 44 43 44 44 45 46 46 45 44 44 45 45 45 46 48 48 49 49 50 53 56 59 58 55 53 52 55 56 56 56 61
46 46 45 44 44 44 45 45 44 44 43 42 42 42 42 42 43 44 44 43 42 43 44 43 45 45 45 44 43 43 45 49 50 52 51 52 54 54 55 57 58 61 63
46 45 44 44 43 43 44 43 43 43 42 41 41 40 40 41 41 41 42 41 42 43 42 42 43 42 42 41 43 42 42 45 46 45 50 51 50 49 50 53 56 59 60
45 44 44 44 42 42 42 42 42 42 41 40 39 39 39 39 40 40 40 43 43 42 41 41 41 41 42 41 40 39 40 42 44 48 48 49 50 51 52 54 56 59 61

GFSMW_sfc_dewp_096.txt.gz
Dewpoint
61 64 64 66 66 66 66 68 68 68 68 68 68 68 68 70 70 71 72 72 72 73 72 72 71 71 70 71 70 69 70 68 68 67 66 64 65 64 67 66 67 67 67
62 63 64 65 65 65 66 67 68 68 68 68 68 69 69 70 71 71 72 72 72 73 73 71 70 70 71 71 71 69 68 68 68 67 64 63 63 65 65 65 66 67 66
62 63 64 65 65 65 66 67 67 68 68 68 70 70 70 70 71 71 71 71 71 72 72 71 71 71 71 70 71 71 70 68 69 68 66 63 62 63 64 65 64 66 66
62 63 63 64 64 64 66 67 67 68 68 69 69 69 68 68 69 70 72 72 72 72 73 72 71 71 70 71 70 71 69 70 69 69 68 67 65 64 63 64 64 64 63
62 62 62 64 64 64 65 66 67 68 69 69 70 68 69 69 70 70 71 71 72 73 71 72 72 72 70 70 70 72 72 73 71 69 68 68 66 66 64 63 65 66 63
62 63 62 64 64 64 65 67 67 67 69 69 69 69 68 68 69 70 70 71 72 73 73 73 72 72 71 70 71 72 72 71 71 70 70 68 68 67 67 65 64 65 66
60 62 63 63 64 64 65 67 67 66 68 69 70 69 69 69 68 69 70 70 71 71 72 73 72 72 71 71 70 72 72 72 71 71 70 69 69 69 68 66 64 64 66
61 63 64 65 65 65 66 67 67 66 67 69 69 70 69 69 70 70 70 70 71 71 72 72 73 72 72 70 70 71 71 71 71 71 71 70 70 69 69 68 67 66 67
62 63 64 66 66 65 67 67 67 67 67 68 69 70 70 69 69 70 71 70 71 71 71 71 73 72 72 72 72 72 72 72 72 71 71 70 70 70 70 69 68 67 64
62 63 64 64 66 66 68 67 67 67 67 68 69 69 70 70 70 70 70 70 71 71 71 70 71 72 72 73 72 72 72 72 71 71 72 71 71 71 71 71 70 69 66
64 65 66 67 67 68 69 70 69 68 68 68 68 70 70 71 71 70 71 71 71 71 71 71 71 72 72 73 73 72 72 71 71 71 71 71 71 70 70 71 71 69 68
63 64 66 67 67 68 69 69 69 69 69 70 70 69 70 71 71 71 71 72 72 71 70 71 71 72 71 72 72 72 72 71 71 71 71 70 70 71 71 71 71 70 71
64 64 65 66 66 67 68 69 69 68 68 68 69 70 70 71 71 71 72 72 73 72 71 71 70 70 70 71 71 72 72 72 71 71 71 71 71 71 70 71 70 70 70
64 65 65 66 66 67 68 68 68 68 68 68 68 68 69 69 70 70 71 71 72 72 71 71 70 70 70 69 68 71 72 72 72 72 72 72 71 71 72 71 72 70 70
62 63 64 65 66 66 68 68 68 68 68 67 68 68 68 68 69 68 68 69 70 71 72 71 71 70 69 68 70 71 71 72 72 72 72 72 72 70 70 73 73 72 71
61 62 63 64 64 65 66 66 66 68 68 67 67 67 67 67 66 68 68 68 68 68 69 70 71 71 72 66 66 71 72 73 73 73 73 73 71 71 67 66 67 71 73
60 61 62 62 62 63 64 63 64 65 65 65 66 66 65 65 65 66 66 65 66 67 68 68 68 68 70 63 63 66 71 72 72 72 72 71 71 71 72 69 66 66 65
55 58 61 61 58 57 57 56 57 58 58 59 60 63 65 64 64 63 63 63 63 64 65 66 68 69 67 60 61 64 69 71 70 70 71 71 71 68 67 70 71 72 72
53 56 56 57 55 54 53 53 53 52 52 52 54 55 58 60 61 62 63 62 61 61 62 65 68 64 61 57 59 65 69 68 68 69 68 68 66 61 59 67 68 69 70
56 54 53 53 53 53 51 49 49 48 49 50 50 53 53 55 57 59 61 62 61 62 64 65 65 61 61 53 55 59 62 61 63 65 66 62 61 59 59 61 62 63 67
52 52 52 50 49 49 48 48 47 47 47 48 48 49 50 51 52 52 53 53 52 53 60 59 57 55 53 51 50 52 57 59 61 62 62 62 56 55 54 54 61 59 60
49 49 48 48 48 48 47 46 46 47 47 47 47 48 48 48 49 50 47 48 50 50 50 50 50 52 51 48 47 48 50 52 57 58 60 60 52 50 51 56 55 54 56
47 47 46 46 46 46 46 45 46 47 46 45 45 45 46 46 48 46 46 45 46 47 47 46 46 47 45 43 45 45 47 49 53 54 52 51 50 51 53 54 54 56 63
46 46 45 44 44 45 45 45 45 45 44 44 43 43 43 43 44 44 44 44 43 43 42 43 43 44 41 40 40 41 42 45 50 50 52 52 52 52 53 55 57 59 61
46 46 45 44 44 44 44 44 44 44 42 41 41 41 41 41 42 43 43 42 43 42 40 40 41 39 37 37 40 40 39 42 46 47 54 53 50 51 52 53 55 57 59
45 44 44 43 43 43 43 43 44 43 41 39 40 40 40 40 39 39 38 41 42 40 39 40 39 39 39 40 39 38 39 41 44 50 50 48 50 48 49 50 52 54 55

GFSMW_sfc_dewp_102.txt.gz
Dewpoint
59 62 63 63 64 66 67 68 69 72 70 68 66 66 65 68 68 68 72 73 72 72 73 70 71 70 69 71 72 69 68 63 66 61 59 59 61 61 61 62 62 62 62
58 61 63 63 63 66 68 70 71 73 72 70 70 68 67 66 67 68 72 71 72 71 71 73 71 72 69 73 73 72 65 65 68 61 61 57 57 58 57 61 60 62 62
57 60 62 63 64 65 67 69 71 73 73 72 73 72 72 71 69 69 68 70 72 71 72 73 72 73 70 67 72 71 72 63 67 71 64 57 57 57 58 60 59 63 62
59 59 61 63 63 65 66 69 71 72 73 74 71 74 69 70 67 69 68 69 71 71 71 72 72 74 71 73 71 70 71 71 65 66 67 71 71 59 55 57 59 59 58
58 58 60 62 63 65 66 68 71 72 72 74 73 73 70 66 67 68 72 72 72 72 71 72 74 75 70 73 73 73 72 70 66 65 67 70 67 69 60 57 58 57 61
57 59 60 62 62 65 66 67 71 73 73 73 73 73 71 70 67 68 68 68 69 69 71 71 72 74 73 73 71 73 71 74 71 67 67 64 63 63 62 61 63 61 63
58 58 60 62 63 65 66 67 70 72 73 72 72 72 71 71 72 71 67 70 68 68 71 72 73 71 73 73 72 75 73 72 71 73 66 66 65 66 65 63 62 61 63
59 58 60 63 64 65 66 66 69 71 72 71 73 74 72 67 66 68 68 67 70 68 73 71 71 72 72 73 74 71 69 71 69 70 72 66 67 66 65 64 63 60 61
59 60 61 64 64 65 67 67 69 70 71 70 72 72 71 71 70 70 73 68 71 71 73 73 72 72 72 73 74 69 72 73 72 71 71 69 66 66 66 66 64 63 59
60 60 61 63 66 64 66 67 68 70 70 70 70 69 70 71 70 71 70 72 75 74 73 73 73 71 72 72 73 71 72 73 70 68 72 72 66 67 66 65 64 64 62
61 63 64 64 65 66 67 68 68 69 69 69 69 70 69 69 71 70 70 71 71 74 73 75 74 74 73 73 74 73 71 72 71 72 72 72 74 68 64 64 64 64 64
62 64 66 67 68 69 69 68 71 68 69 69 70 71 68 69 68 70 70 72 71 74 73 73 75 73 71 73 73 72 69 71 70 70 71 71 68 73 73 67 71 69 70
62 63 65 66 67 67 68 69 70 71 71 70 69 73 68 68 69 70 70 72 71 71 71 73 73 71 72 73 73 72 71 71 70 70 70 70 70 71 69 71 69 66 67
64 64 65 66 67 67 68 69 69 71 70 71 71 69 69 68 68 71 72 71 74 71 71 71 72 72 71 72 73 72 72 71 70 71 70 71 71 71 72 70 73 70 71
63 64 65 66 68 68 68 69 69 69 69 70 70 71 72 73 72 72 73 73 73 72 74 72 73 73 71 68 73 73 72 72 71 72 71 71 71 71 71 73 75 73 71
63 64 65 66 67 68 69 69 70 69 70 68 68 69 70 71 71 72 72 73 73 74 74 73 73 73 70 62 64 70 72 73 72 71 72 71 72 71 68 68 67 70 75
63 64 65 66 67 68 69 70 69 70 69 68 68 68 69 69 70 70 71 72 72 72 72 72 72 70 68 59 62 65 73 74 71 72 72 71 68 70 71 69 68 67 66
63 62 63 63 64 67 69 69 69 69 69 68 68 69 68 67 67 67 68 69 70 70 70 70 68 65 60 57 60 66 73 72 71 71 70 69 67 64 64 69 70 71 72
61 60 61 60 59 59 62 62 62 63 64 64 66 67 66 65 65 65 66 67 70 68 69 67 64 61 57 52 55 66 70 69 68 64 64 64 61 56 57 64 65 66 67
58 57 57 57 57 56 58 57 59 59 59 59 59 61 63 66 66 66 65 64 68 65 62 60 58 55 53 49 51 59 63 64 62 63 62 55 55 53 53 61 61 60 59
56 55 54 55 55 56 57 55 55 55 57 58 59 59 61 62 62 62 64 64 59 57 58 55 51 51 51 48 47 49 56 58 56 55 54 53 53 51 51 53 59 57 59
52 52 51 52 53 53 54 55 54 56 58 57 57 58 58 55 58 62 62 61 59 58 57 55 52 49 49 45 45 46 48 51 54 54 53 54 50 49 51 53 53 53 55
51 51 50 50 53 56 56 53 53 54 55 55 56 56 56 56 58 60 57 55 58 56 55 53 50 47 47 45 45 45 46 48 51 50 51 52 50 50 52 53 54 53 52
52 50 51 50 50 52 53 54 53 52 53 54 54 53 53 53 53 50 52 52 52 52 51 50 49 46 43 39 39 40 43 47 46 50 50 49 51 52 52 50 51 51 52
53 52 51 50 50 51 51 49 50 50 50 50 49 50 48 50 50 46 45 44 42 41 48 46 44 44 43 37 39 39 39 41 44 48 45 43 43 43 44 46 46 47 44
52 52 52 50 50 48 48 49 49 50 49 47 45 43 44 44 43 42 39 40 39 39 38 38 39 36 38 38 38 38 39 39 41 43 40 40 40 40 40 40 40 42 44

GFSMW_sfc_dewp_105.txt.gz
Dewpoint
57 58 58 59 61 64 65 66 67 70 69 66 66 70 72 73 73 72 71 71 71 71 73 73 70 71 72 71 70 68 68 61 62 62 58 58 60 61 60 59 59 61 60
57 58 61 59 59 63 65 67 69 71 71 67 76 75 70 68 71 71 71 72 71 72 70 74 72 73 68 71 72 72 66 60 61 62 59 56 57 57 56 58 58 60 59
56 59 61 60 60 63 65 67 70 72 72 74 75 71 70 71 65 67 68 70 70 70 72 72 74 71 74 71 73 70 71 61 62 70 69 59 63 56 56 60 58 62 61
56 58 59 60 59 63 64 68 70 72 72 73 75 74 69 65 72 69 72 69 70 70 71 72 72 73 73 74 72 70 74 73 61 61 62 70 69 66 56 55 58 59 58
54 54 57 58 59 63 63 66 71 73 72 74 74 71 72 72 71 71 73 74 73 71 70 72 72 73 70 72 74 71 74 69 68 65 61 67 62 65 60 63 57 56 57
56 58 58 61 59 61 63 65 70 73 72 73 73 73 73 74 71 71 70 68 68 69 71 71 72 73 74 72 70 73 72 74 74 69 67 61 65 67 66 59 62 62 62
60 56 62 59 63 66 65 64 69 71 71 72 71 71 70 71 71 70 69 71 68 66 71 72 73 71 74 73 73 74 74 71 71 75 68 62 61 61 62 61 67 58 62
59 58 58 61 64 66 66 64 68 71 71 71 72 72 72 67 67 69 74 73 69 70 73 72 71 71 72 72 73 70 68 73 69 71 75 68 63 62 62 62 61 59 67
55 60 57 61 68 63 66 66 68 70 70 70 71 72 72 71 71 72 73 71 71 72 72 71 71 71 72 72 74 70 72 73 72 72 72 70 65 62 62 62 62 61 58
59 59 59 60 60 62 63 67 67 68 69 69 69 69 70 71 71 71 72 72 72 72 74 72 72 72 72 73 74 72 73 72 70 66 72 72 67 68 64 62 62 61 61
60 65 64 66 61 63 63 65 66 69 68 68 68 68 67 67 69 68 69 71 71 72 72 73 72 72 72 73 74 75 74 72 72 72 71 71 74 68 66 66 64 61 61
61 63 66 66 67 67 67 67 70 68 68 69 70 69 69 68 66 68 68 71 72 73 72 73 72 71 72 73 73 73 69 70 70 70 71 70 66 72 75 68 76 70 71
61 61 62 67 68 69 70 69 70 70 71 69 69 72 69 68 68 67 68 70 72 72 71 72 72 72 71 71 72 73 71 70 69 69 70 70 70 72 70 72 70 66 69
62 63 65 65 68 69 70 71 72 72 72 71 72 73 71 68 68 73 70 69 72 72 71 72 73 72 71 71 71 71 72 71 70 70 73 72 71 72 72 71 74 72 71
62 63 66 68 69 68 69 68 68 70 70 71 71 71 74 72 72 72 73 70 71 71 71 71 74 71 69 67 71 71 72 72 71 70 70 71 72 71 70 70 74 74 72
64 65 66 67 68 68 68 69 68 69 70 70 70 72 73 72 73 73 72 73 72 72 72 71 72 72 70 62 63 68 72 72 73 72 70 70 72 71 69 68 68 71 74
64 65 65 66 67 68 69 68 69 69 70 69 69 70 70 70 71 72 73 73 73 73 73 72 72 72 70 58 61 66 71 72 73 73 73 72 70 71 71 69 68 68 67
65 66 66 67 68 70 71 71 71 70 70 70 69 69 69 69 70 70 69 70 71 72 73 72 70 67 61 55 56 62 73 74 74 73 72 72 70 59 59 66 69 70 72
63 62 63 64 63 65 69 70 70 70 69 69 69 69 69 68 67 67 67 68 70 71 69 68 66 63 60 51 53 62 72 70 70 67 63 66 61 55 56 65 66 66 66
60 59 59 59 58 58 62 62 62 64 64 65 67 67 68 66 66 66 66 66 67 66 66 61 60 56 57 48 50 56 66 68 64 62 59 55 55 53 54 63 61 60 58
57 56 55 56 57 57 58 57 58 58 61 61 61 62 64 64 66 66 67 65 64 62 61 58 56 54 52 47 47 49 58 58 61 59 57 54 53 51 51 53 59 56 57
53 53 53 54 55 56 56 55 56 58 60 61 62 61 62 59 61 65 63 61 61 60 59 58 55 52 51 47 46 48 49 52 55 54 53 54 50 49 50 53 52 52 54
52 52 52 54 56 56 55 54 56 58 59 59 61 61 59 60 62 62 62 60 60 59 59 56 54 51 49 48 46 45 46 48 52 48 51 51 49 49 52 54 52 53 52
52 52 52 50 51 54 55 55 56 58 56 56 58 57 56 57 59 58 58 58 57 56 56 55 53 50 48 46 43 43 45 47 49 51 53 48 50 51 51 52 52 50 47
53 52 51 51 51 51 51 53 54 56 56 57 56 54 51 53 51 45 40 47 41 39 44 51 50 47 47 40 39 39 39 40 42 47 46 47 49 45 44 46 47 45 45
54 52 52 50 50 50 51 52 51 53 54 54 54 52 46 47 45 45 41 39 39 39 39 39 41 37 38 38 39 38 39 40 40 43 41 40 41 41 41 41 41 42 45

GFSMW_sfc_dewp_108.txt.gz
Dewpoint
56 55 57 59 62 65 66 68 71 73 71 72 68 73 68 73 73 72 75 76 76 76 76 76 74 72 72 76 75 75 73 72 71 72 68 66 66 67 68 66 65 67 67
57 56 57 59 60 65 67 70 70 73 74 72 72 74 73 73 73 74 75 74 75 76 75 77 74 73 75 76 76 76 75 71 70 70 68 66 66 65 62 66 63 64 65
58 57 59 58 61 65 67 70 72 73 75 76 72 76 73 76 73 71 73 73 74 75 73 76 74 77 76 75 77 76 75 72 70 73 72 68 66 65 65 65 66 65 68
59 58 58 60 60 65 66 71 73 73 74 74 74 71 73 71 73 74 74 75 75 74 74 76 76 76 72 73 77 75 76 75 72 71 68 73 67 64 64 65 64 66 65
59 59 56 62 62 63 65 70 73 74 76 73 77 74 75 71 72 72 72 78 77 76 73 76 76 77 76 76 76 75 77 76 75 72 72 68 72 67 69 64 62 66 67
62 61 58 62 62 62 65 70 73 74 75 74 74 75 72 71 72 71 71 75 73 74 76 74 77 77 77 74 75 77 76 76 77 75 74 68 67 67 67 65 65 65 70
60 62 59 59 62 64 64 68 72 73 74 74 73 74 75 73 70 71 72 69 73 71 75 77 77 76 77 76 76 77 76 76 75 77 74 73 67 65 66 67 65 65 70
59 63 58 63 65 66 67 68 72 72 73 73 75 76 75 73 72 72 73 69 71 72 75 76 76 76 77 76 77 76 75 76 75 76 76 74 71 68 70 70 68 66 67
56 58 61 62 65 67 68 69 72 72 73 72 74 75 76 75 76 74 73 70 72 73 73 75 76 75 75 76 76 75 74 74 72 74 76 75 73 71 70 67 71 68 66
56 60 61 64 65 66 65 68 71 71 72 72 72 72 73 74 75 72 72 70 69 73 69 71 75 76 74 74 76 75 73 75 74 73 74 76 74 73 71 69 70 70 68
55 61 64 67 67 63 65 67 69 71 70 71 71 72 72 72 73 74 73 69 71 73 69 75 76 76 74 74 76 76 75 74 75 75 74 74 75 74 73 72 71 70 71
59 61 65 68 70 69 69 66 69 69 69 69 72 72 72 71 71 73 72 76 75 77 76 76 76 76 75 76 76 74 74 72 73 74 75 74 70 74 76 74 74 73 74
63 62 64 66 67 65 67 70 71 71 73 71 73 72 72 72 73 71 73 75 76 76 74 76 76 75 75 74 76 76 76 74 72 74 74 74 74 74 74 74 74 72 72
63 62 62 66 67 65 64 68 72 72 72 73 73 71 74 71 72 71 73 74 76 75 75 75 74 75 75 74 74 75 74 74 73 73 73 70 72 74 74 73 74 72 73
62 63 63 65 71 69 70 71 70 72 72 72 72 71 72 73 75 74 75 75 75 74 74 75 75 75 71 65 67 74 74 74 74 75 74 74 73 71 71 73 75 76 74
62 66 67 68 68 70 69 70 70 70 70 70 70 72 72 72 72 72 74 75 75 75 75 74 74 74 66 61 63 67 74 74 74 74 74 73 74 71 69 69 69 71 73
65 67 66 67 70 70 71 70 70 70 70 70 70 71 72 72 71 71 73 72 73 74 74 74 74 69 63 57 58 63 70 73 75 76 76 74 66 63 65 68 68 68 67
66 67 67 68 69 71 71 71 71 71 70 70 70 70 70 70 69 69 71 72 71 70 70 70 69 67 56 53 55 59 69 75 74 72 72 68 63 57 58 65 70 70 72
62 62 62 63 63 65 70 71 71 71 70 70 70 69 69 68 69 68 68 69 69 69 67 66 63 63 55 50 53 60 74 71 66 64 61 63 60 56 56 67 65 67 64
59 59 60 60 59 60 64 64 64 67 68 69 69 70 70 68 67 67 67 68 68 66 64 61 57 57 54 48 50 58 71 69 65 61 58 55 55 54 54 62 62 60 60
56 56 57 57 57 58 60 59 60 59 62 63 65 67 68 68 67 67 69 67 64 62 60 57 55 52 52 48 49 50 59 61 58 61 58 57 53 51 51 53 60 58 56
54 54 54 55 56 56 57 57 57 59 61 62 62 62 63 62 65 64 62 63 62 61 60 58 57 53 52 48 47 48 49 51 58 55 56 56 50 49 49 54 53 52 54
53 54 53 53 55 56 55 55 57 59 59 59 60 61 64 63 64 62 62 60 61 59 59 59 56 55 55 51 46 46 47 50 55 51 50 50 50 50 54 54 54 53 50
52 52 52 51 52 53 54 56 57 58 57 58 59 59 59 56 51 52 57 55 48 56 59 60 57 54 54 51 48 49 53 49 53 53 56 52 51 52 50 50 50 49 49
53 50 49 50 52 52 52 54 54 56 56 57 56 57 55 55 48 40 41 43 39 39 44 44 45 50 51 40 40 39 41 42 44 44 55 53 53 50 49 48 49 48 47
54 51 52 51 52 52 52 52 54 56 55 55 54 55 57 56 52 50 40 39 39 39 38 38 42 36 38 39 39 38 39 40 41 49 54 50 50 49 49 49 50 49 50

GFSMW_sfc_dewp_111.txt.gz
Dewpoint
54 55 60 61 62 64 65 67 66 70 68 68 67 67 67 70 71 70 70 70 70 70 71 72 60 63 68 69 71 70 70 69 68 66 65 62 63 65 65 65 65 65 66
54 56 61 61 62 64 64 68 69 69 66 69 69 70 69 71 71 71 71 70 72 70 72 72 68 68 70 71 71 71 71 69 66 65 67 59 64 62 63 64 64 63 64
55 57 60 61 62 64 67 68 69 68 70 71 71 71 69 72 71 69 71 71 72 71 71 72 71 70 70 70 72 72 71 71 70 67 67 64 63 65 62 63 62 66 69
57 57 59 60 62 64 67 68 69 69 71 71 71 68 69 67 70 70 71 70 71 71 71 71 72 71 71 70 72 71 72 72 70 69 68 68 65 61 63 65 63 66 69
57 57 58 59 62 65 66 69 70 70 71 70 71 70 69 69 70 70 70 70 72 71 71 71 70 72 72 71 71 73 71 72 72 71 70 68 68 68 62 61 63 66 69
61 61 62 61 62 64 66 69 70 70 71 69 71 69 69 67 69 69 70 70 71 71 70 71 73 72 72 71 71 72 70 72 71 73 70 66 66 65 64 62 62 62 68
62 63 62 61 61 63 65 70 70 69 71 71 71 70 70 69 68 68 69 68 68 70 70 72 71 71 71 71 71 71 70 71 70 70 72 71 66 66 66 64 63 64 67
61 62 62 62 61 63 66 68 70 70 70 71 70 71 71 71 70 70 71 68 68 70 71 72 71 71 73 72 72 71 72 70 70 69 70 71 69 69 68 67 64 61 65
59 62 61 66 65 63 67 70 70 69 71 71 71 70 71 70 71 70 70 68 67 69 71 72 72 72 72 71 71 71 70 70 68 70 70 71 70 70 69 68 67 65 62
57 60 61 65 66 64 68 71 71 70 70 71 71 71 71 71 70 70 70 67 67 68 71 72 71 72 71 70 71 71 69 71 71 71 69 70 70 69 70 70 69 67 65
56 57 60 64 66 66 69 70 71 71 70 71 70 71 71 70 70 71 70 69 68 70 70 70 71 71 70 72 71 71 70 71 70 71 70 69 70 70 70 72 71 69 69
55 56 62 65 67 68 67 68 68 70 70 70 70 71 70 70 70 70 69 67 68 71 71 69 72 71 71 72 71 71 72 70 70 70 69 69 70 69 71 70 71 70 70
55 63 66 65 67 67 67 67 68 70 71 69 71 70 69 70 69 69 70 71 70 72 73 72 71 71 72 71 72 72 71 71 71 70 70 69 69 69 68 70 70 69 70
55 64 66 66 67 66 65 65 66 68 70 71 70 70 70 69 69 68 68 71 72 71 71 72 72 71 71 69 71 72 71 71 71 72 71 69 68 70 69 70 70 71 70
59 63 65 65 65 65 66 67 67 67 70 69 70 69 70 71 71 71 69 71 72 72 71 71 71 68 67 64 65 68 71 70 70 71 71 71 72 70 69 69 70 70 70
62 63 65 67 63 64 63 65 64 66 71 69 69 70 70 70 71 71 70 70 70 69 70 70 70 64 61 61 63 65 68 71 70 70 71 68 64 66 67 67 68 68 68
64 66 66 68 68 66 64 68 68 70 70 69 69 69 70 69 70 70 70 71 70 70 69 69 64 58 55 55 57 61 66 70 71 70 70 64 57 58 61 65 67 68 66
60 62 63 64 65 70 69 70 69 69 69 68 69 70 70 69 68 67 68 70 70 70 68 67 65 58 50 53 55 58 66 66 63 65 62 59 56 55 58 64 63 64 57
59 60 61 62 63 64 67 69 69 69 69 68 69 68 68 67 67 67 67 68 68 66 64 64 61 52 46 52 54 62 67 64 59 58 59 55 53 55 58 59 56 53 52
56 57 59 59 59 61 64 64 66 67 68 68 68 68 68 67 66 65 66 67 65 62 61 59 56 53 44 49 52 59 67 61 55 52 51 55 52 53 53 58 50 46 49
55 56 57 56 58 59 60 60 61 61 63 65 68 68 67 67 66 65 65 65 61 58 56 53 49 48 47 44 49 51 55 60 59 56 52 50 52 50 51 53 50 49 51
54 54 54 55 56 58 59 58 58 60 62 62 62 63 64 65 64 63 64 61 60 59 58 56 51 48 43 47 48 49 49 55 54 54 52 49 49 49 50 51 52 51 51
53 53 53 53 54 55 55 56 57 59 60 60 60 62 59 61 62 61 61 60 60 59 58 56 54 53 49 44 49 48 49 51 48 49 48 50 50 49 50 51 51 49 46
52 52 51 50 51 52 53 55 56 58 57 58 59 58 52 48 43 45 45 44 43 48 49 57 54 52 51 45 43 44 47 50 46 49 50 50 50 50 49 47 47 45 45
51 49 50 50 51 51 51 53 54 55 56 56 56 57 54 49 40 39 44 38 36 38 40 44 43 51 43 36 38 38 37 37 40 41 50 46 46 45 44 45 45 44 44
51 51 50 49 49 50 50 50 51 54 53 53 53 54 58 54 46 43 41 40 39 38 38 39 36 34 39 38 38 38 38 39 41 43 48 43 46 43 43 44 45 45 43

GFSMW_sfc_dewp_114.txt.gz
Dewpoint
57 61 63 63 64 65 65 65 64 65 68 67 68 67 67 69 70 70 70 71 69 70 70 71 59 68 71 71 70 71 71 67 66 63 66 62 63 63 65 65 66 68 70
58 60 60 63 64 64 65 66 65 67 66 67 68 67 69 69 70 70 70 71 71 71 72 70 69 69 70 70 71 71 70 70 68 66 65 59 63 66 64 68 68 69 68
58 59 59 61 63 63 66 66 68 65 68 69 70 69 70 70 69 70 70 70 71 70 71 71 70 70 69 68 71 71 71 69 70 67 66 63 62 63 64 65 68 69 69
59 60 59 60 62 63 66 66 67 67 70 71 69 67 67 67 68 69 70 70 71 70 70 71 72 70 71 70 71 72 71 70 69 69 69 67 65 60 60 64 64 68 68
59 59 60 60 62 64 65 67 67 69 69 69 69 69 68 68 69 69 68 69 70 71 70 70 71 71 71 70 70 70 71 71 71 69 67 67 66 64 61 58 61 65 68
58 59 60 61 62 65 65 67 67 69 69 69 70 69 68 68 68 68 68 69 68 70 71 71 71 71 71 70 70 71 70 71 71 71 68 66 65 64 62 59 60 61 65
60 61 59 61 62 64 67 67 67 69 68 68 70 70 68 67 67 68 68 68 67 69 69 70 71 71 70 71 71 70 69 70 70 70 69 66 66 67 65 62 62 63 66
60 61 61 62 62 64 67 67 68 68 69 69 70 70 70 69 69 68 69 68 68 69 70 71 71 71 71 70 71 70 71 69 69 68 70 69 66 66 66 65 63 61 62
60 61 62 63 63 63 67 67 68 68 69 68 70 69 70 70 69 69 69 68 67 68 69 71 70 71 71 71 71 70 70 70 68 70 70 70 69 67 69 68 66 64 60
61 61 62 64 63 64 67 70 69 69 69 69 70 69 70 70 70 69 69 68 66 67 68 70 71 71 72 70 71 70 69 70 70 70 68 69 69 69 70 71 70 67 64
60 61 62 65 65 65 68 70 70 69 70 70 70 69 70 70 69 69 68 67 65 66 67 69 69 70 71 71 71 71 70 70 70 70 69 68 70 70 70 70 70 69 68
59 59 63 65 66 68 68 70 70 69 69 71 70 70 70 70 68 68 69 69 66 68 69 69 69 70 71 71 71 70 72 70 69 68 69 69 70 68 70 70 69 68 69
57 57 63 65 66 67 68 70 70 70 70 70 70 69 70 69 69 68 69 67 68 67 69 69 68 70 71 70 70 70 70 71 71 71 70 69 68 68 68 69 69 68 70
55 56 62 65 66 67 68 68 68 68 68 70 70 70 70 70 69 69 70 68 66 67 70 71 71 70 69 68 69 71 71 70 70 71 70 70 69 69 68 69 69 70 69
60 62 62 64 66 66 66 66 68 68 68 68 69 70 70 70 70 70 70 71 70 71 71 70 68 67 66 66 66 68 69 70 69 70 71 70 69 68 68 69 68 68 68
61 64 65 66 64 65 64 65 65 67 69 68 69 69 70 70 70 71 71 71 70 69 68 69 66 63 60 58 63 64 67 69 69 69 66 64 66 66 65 65 66 68 67
61 61 65 65 65 65 65 65 65 66 68 68 69 69 69 69 69 70 70 70 70 70 68 65 62 60 57 56 57 60 64 68 69 69 66 58 56 59 64 66 63 61 63
60 60 61 62 63 66 65 67 66 66 68 68 68 69 69 68 68 68 69 70 69 70 68 64 62 57 57 55 56 60 65 64 64 62 58 56 57 59 63 61 60 55 51
59 60 61 61 62 63 66 68 68 68 68 68 68 68 68 67 67 67 67 68 67 67 66 64 60 57 51 53 57 64 63 60 58 57 54 52 52 56 57 49 45 45 51
56 57 59 60 61 60 65 65 66 67 68 68 68 68 68 67 66 66 67 66 64 62 60 58 51 49 47 51 54 64 62 58 54 50 50 54 52 52 54 48 46 49 50
55 56 56 56 58 60 62 61 62 62 64 68 68 68 68 67 66 65 65 62 60 57 54 49 48 46 44 45 50 56 61 59 54 49 47 48 51 50 51 51 50 50 52
53 54 55 55 56 58 59 58 58 60 62 64 64 65 66 66 66 64 62 61 59 57 54 50 45 43 43 47 48 51 54 58 56 55 50 48 50 50 50 50 50 50 49
52 53 52 53 54 56 57 57 58 60 60 59 57 56 55 56 58 62 62 60 59 58 56 54 51 48 46 46 49 50 51 52 48 46 49 50 48 48 48 50 49 48 44
51 52 51 50 50 52 53 55 56 58 59 58 55 54 52 50 51 52 51 47 47 52 58 57 53 50 46 42 41 43 43 45 42 48 48 49 49 49 48 45 45 44 43
50 50 49 50 50 50 51 54 54 54 56 57 55 52 50 49 48 45 47 48 42 38 41 45 51 50 43 37 38 38 37 37 39 43 48 46 43 42 43 44 44 44 44
50 48 47 47 48 48 49 49 52 53 53 53 55 54 51 48 43 41 40 40 41 40 39 40 38 36 41 38 38 37 37 39 40 43 44 43 42 42 43 43 42 42 45

GFSMW_sfc_dewp_117.txt.gz
Dewpoint
58 61 63 64 64 64 64 64 63 65 67 68 68 67 67 69 69 70 70 70 70 71 71 66 63 69 70 70 72 71 70 68 67 64 64 63 64 64 67 68 68 68 68
59 62 63 63 63 63 64 64 63 67 67 66 68 67 68 68 69 70 70 70 70 71 71 70 68 69 68 70 70 70 69 69 69 67 63 59 63 64 65 68 67 67 67
59 61 62 62 63 63 64 65 64 67 66 68 70 68 70 70 69 69 69 69 70 71 72 70 70 69 68 69 70 70 70 68 67 67 65 62 60 62 64 64 67 68 68
59 61 60 61 63 63 65 65 66 65 68 69 68 67 67 66 67 68 69 70 71 70 71 71 71 70 70 69 71 71 70 69 67 67 68 66 64 60 60 63 64 67 67
58 59 59 61 63 63 65 66 66 68 69 70 68 67 67 67 68 68 68 69 69 70 71 70 71 70 70 70 70 70 70 70 68 67 65 65 64 62 59 57 60 64 66
59 58 59 61 62 63 65 66 66 68 68 69 69 68 67 67 68 67 68 69 68 70 70 71 71 70 70 70 70 69 70 70 70 69 67 65 63 62 59 58 58 59 64
59 59 59 60 61 63 65 66 67 67 68 69 69 68 68 68 67 67 68 68 67 69 69 70 71 70 70 70 71 70 68 69 69 69 67 65 65 65 62 60 61 62 64
59 59 60 60 61 64 64 66 66 67 67 68 69 69 68 68 67 67 68 68 68 68 69 70 71 70 71 69 71 70 71 69 69 68 69 66 65 65 64 62 62 61 61
59 59 60 62 62 64 65 65 65 66 68 67 69 69 69 69 68 68 67 68 68 68 68 71 70 71 70 71 70 70 70 70 68 69 69 68 67 65 67 67 65 63 60
60 60 60 62 63 63 66 67 67 66 68 68 68 68 69 69 69 69 68 68 67 66 68 70 70 70 70 71 70 70 69 69 69 70 68 69 69 68 69 68 68 67 63
60 61 61 62 63 65 66 67 68 67 67 68 68 68 69 69 69 68 68 68 67 66 66 67 69 68 70 71 70 70 69 68 69 69 68 68 69 69 69 69 69 68 67
58 60 61 64 64 65 65 67 68 68 68 68 68 69 69 69 68 68 68 68 66 65 65 67 69 68 70 69 70 70 70 70 69 68 69 68 69 68 68 69 68 68 68
61 59 61 64 65 65 66 67 69 69 69 69 70 69 69 69 68 68 68 68 68 66 67 69 68 68 69 70 70 70 70 70 70 70 69 69 68 68 68 68 68 68 70
59 60 62 64 65 67 68 68 69 70 70 70 70 69 69 69 69 68 68 68 67 67 66 68 69 69 70 68 69 70 71 71 70 70 70 70 69 68 68 68 68 69 68
63 64 61 64 66 67 68 69 70 70 70 70 70 70 70 70 70 69 69 69 68 67 68 69 69 67 67 67 66 68 69 70 70 70 70 69 69 68 68 69 68 68 67
62 64 65 65 66 66 67 68 68 68 69 69 69 70 69 70 70 70 70 70 70 70 69 69 66 63 61 59 63 64 67 68 69 69 66 66 67 66 65 65 67 68 67
61 62 63 65 65 65 65 66 66 68 68 68 69 69 69 68 69 70 70 70 69 69 68 65 63 61 59 57 57 61 64 67 68 68 65 58 57 62 65 62 59 58 61
59 60 61 64 64 65 66 66 66 66 67 67 68 68 68 68 69 69 69 69 69 69 67 65 62 59 58 55 56 60 63 65 63 64 61 58 60 60 64 59 51 51 51
57 58 59 60 62 63 66 67 67 66 67 67 68 68 68 68 67 67 67 68 68 69 67 64 61 60 58 55 56 63 63 60 59 59 59 60 59 57 58 56 45 52 53
56 56 57 58 59 60 64 67 67 67 66 67 67 68 68 67 67 67 67 66 66 63 62 59 58 56 56 55 56 62 61 58 56 56 56 55 54 55 52 47 50 52 51
54 56 56 56 57 60 62 61 63 63 64 68 68 67 67 67 67 66 66 63 59 56 53 50 47 45 46 49 54 57 58 56 51 49 48 49 52 51 51 51 52 51 51
53 54 55 55 56 59 60 59 59 61 63 63 63 66 66 67 66 64 62 60 57 53 49 45 43 43 44 50 51 54 57 57 54 52 50 50 50 49 49 50 51 52 51
52 53 52 53 54 56 58 58 58 59 58 58 58 56 56 57 60 63 61 60 60 56 51 47 44 44 46 45 50 51 52 52 47 50 52 49 48 48 48 50 49 49 45
51 51 51 50 50 52 54 56 58 58 57 56 56 56 57 55 55 54 54 55 55 58 57 53 50 48 44 42 43 44 43 47 47 51 49 49 49 48 46 45 46 43 42
49 49 49 49 49 49 50 53 54 56 56 54 53 52 52 51 48 47 48 49 45 47 52 52 52 50 45 38 39 40 39 38 40 46 45 43 42 42 42 43 44 44 43
49 47 47 47 47 47 48 49 50 52 55 54 52 51 51 49 47 47 45 41 42 41 40 40 43 40 42 39 38 37 38 38 40 45 44 43 41 42 42 41 43 43 42

GFSMW_sfc_dewp_123.txt.gz
Dewpoint
60 62 63 64 65 66 68 69 70 71 71 70 69 69 68 70 68 69 72 73 74 74 74 70 72 74 73 74 75 72 72 69 70 67 66 67 68 69 69 69 68 68 68
59 61 63 63 64 66 68 69 70 72 71 70 70 69 70 70 70 71 73 74 73 74 74 73 73 74 73 75 75 74 71 69 71 69 66 63 64 66 66 69 68 69 68
58 61 62 63 64 66 68 69 70 71 72 72 71 71 71 72 70 74 76 72 73 73 74 73 73 74 74 72 74 74 73 68 69 71 69 64 60 65 66 66 65 68 67
59 60 61 63 64 65 67 68 70 71 71 73 71 72 68 68 72 76 74 74 74 73 74 74 74 75 73 75 74 73 73 73 68 69 67 70 68 64 62 65 65 66 65
57 58 60 62 63 64 66 67 69 70 71 72 73 72 71 69 72 71 73 75 75 73 73 75 74 74 73 75 75 75 75 72 71 69 68 68 66 68 63 58 59 64 64
57 59 61 63 63 64 65 66 69 70 71 72 73 73 72 72 70 71 69 70 72 71 74 73 75 76 74 75 73 75 74 74 74 71 70 67 65 65 63 62 64 64 66
57 59 61 62 63 64 65 66 68 69 70 70 72 72 72 72 72 72 70 71 70 70 74 75 75 76 75 74 75 75 74 74 72 74 69 69 68 68 65 64 65 64 66
57 58 61 62 64 64 65 66 67 68 69 70 72 73 73 70 70 72 70 70 70 70 73 73 74 74 75 74 75 73 72 73 72 73 74 70 69 69 68 67 65 63 65
57 57 61 62 63 64 66 66 67 68 69 69 71 72 73 72 71 72 72 70 72 71 72 72 73 73 74 75 75 71 73 74 73 72 73 72 70 69 69 70 69 66 60
59 59 60 61 63 63 64 66 67 67 68 69 70 70 71 72 72 72 72 72 72 72 72 72 72 73 74 74 75 75 74 74 72 70 73 74 71 71 70 70 70 69 70
59 60 60 61 63 63 63 65 66 67 67 68 69 70 70 71 72 71 72 73 72 72 71 72 72 73 73 74 75 75 74 74 74 73 74 73 74 70 70 71 72 70 70
60 61 61 62 63 64 64 64 66 67 67 68 69 70 70 71 70 72 72 73 73 72 72 71 71 71 72 73 74 73 72 73 72 72 73 73 70 73 74 72 75 73 72
62 62 63 63 64 65 66 66 67 66 67 68 68 69 69 69 70 71 71 72 72 72 71 70 70 70 70 72 74 74 73 72 73 73 73 72 73 74 72 74 74 69 72
62 62 63 64 65 67 68 68 68 68 69 69 69 69 69 69 69 71 72 72 72 72 71 71 70 70 72 72 72 73 74 73 73 74 73 73 73 74 74 73 75 73 74
62 63 64 65 66 68 69 69 69 70 70 71 70 69 72 71 71 72 72 72 72 72 72 71 70 71 72 70 72 73 73 74 73 72 73 73 72 70 71 75 75 75 75
61 64 64 64 66 67 68 68 68 69 71 69 70 71 72 72 72 73 73 73 73 73 73 72 71 72 70 63 65 68 71 72 72 70 71 73 69 69 66 67 68 71 74
59 60 61 65 67 68 68 69 70 72 71 71 72 72 72 72 71 72 74 73 74 74 73 73 72 72 70 59 60 61 68 70 71 72 73 72 68 66 70 63 63 62 61
57 58 59 61 63 64 67 68 69 70 70 70 69 70 71 71 71 70 71 70 73 71 73 72 71 69 67 57 57 59 66 68 70 71 72 72 69 68 68 64 63 62 63
57 59 59 60 61 62 63 66 68 69 68 67 68 68 69 69 69 69 69 70 70 70 69 70 70 68 66 59 59 62 68 66 66 66 66 66 67 59 61 65 62 61 57
56 57 58 59 61 61 63 64 67 68 67 68 68 68 69 69 69 69 68 69 70 69 68 67 67 62 63 58 56 61 66 63 61 59 60 55 57 53 55 65 61 60 58
55 56 57 58 59 60 63 63 64 64 65 66 68 68 69 70 69 68 68 67 65 64 62 60 58 58 57 59 57 57 64 63 61 60 59 55 53 51 51 52 59 59 57
54 54 55 55 58 59 60 58 58 61 64 65 64 64 66 68 68 66 64 62 60 58 56 55 55 56 56 52 57 58 59 59 63 59 57 57 50 49 51 53 51 51 53
53 53 53 54 55 59 59 58 58 59 59 59 58 58 58 57 58 62 62 59 59 57 56 55 54 54 51 52 52 52 54 55 55 56 54 51 48 49 50 52 52 52 53
52 52 52 52 52 56 58 58 58 57 57 56 56 56 54 53 54 54 55 55 59 58 57 55 54 54 54 54 54 54 57 54 53 54 53 51 50 50 49 50 51 49 49
50 50 49 49 51 52 53 54 55 57 56 56 55 54 54 54 51 48 51 50 47 49 57 56 55 53 50 45 40 43 45 48 48 50 48 48 49 50 50 48 49 48 49
50 50 50 49 50 50 50 52 53 54 52 50 51 53 54 53 53 52 49 45 47 46 45 48 49 46 44 42 40 39 40 41 43 50 49 47 47 47 47 47 46 46 45